This is the latest recevied weather packets stored in our database for station/object KF7PIZ. If no packets are shown the sender has not sent any weather packets the latest 10 day(s).
| Time | Temp. | Humidity | Pressure | Rain* | Wind** | Luminosity | Snow |
|---|---|---|---|---|---|---|---|
| 1777019949 | 2.78° C | 66% | 1016.5 hPa | 0 mm | - | 0 W/m² | - |
| 1777019644 | 2.78° C | 65% | 1016.3 hPa | 0 mm | - | 0 W/m² | - |
| 1777019341 | 2.78° C | 65% | 1016.4 hPa | 0 mm | - | 0 W/m² | - |
| 1777019037 | 2.78° C | 63% | 1016.5 hPa | 0 mm | - | 0 W/m² | - |
| 1777018735 | 3.33° C | 62% | 1016.2 hPa | 0 mm | - | 0 W/m² | - |
| 1777018432 | 3.33° C | 63% | 1016.2 hPa | 0 mm | - | 0 W/m² | - |
| 1777018129 | 3.33° C | 64% | 1016.4 hPa | 0 mm | - | 0 W/m² | - |
| 1777017825 | 3.33° C | 63% | 1016.3 hPa | 0 mm | - | 0 W/m² | - |
| 1777017521 | 3.89° C | 64% | 1016.5 hPa | 0 mm | - | 0 W/m² | - |
| 1777017218 | 3.33° C | 64% | 1016.5 hPa | 0 mm | - | 0 W/m² | - |
| 1777016914 | 3.89° C | 65% | 1016.3 hPa | 0 mm | - | 0 W/m² | - |
| 1777016611 | 3.89° C | 67% | 1016.8 hPa | 0 mm | - | 0 W/m² | - |
| 1777016307 | 3.89° C | 68% | 1016.6 hPa | 0 mm | - | 0 W/m² | - |
| 1777016005 | 3.89° C | 67% | 1016.8 hPa | 0 mm | - | 0 W/m² | - |
| 1777015701 | 4.44° C | 66% | 1016.8 hPa | 0 mm | - | 0 W/m² | - |
| 1777015398 | 4.44° C | 67% | 1016.8 hPa | 0 mm | - | 0 W/m² | - |
| 1777015094 | 4.44° C | 59% | 1016.8 hPa | 0 mm | - | 0 W/m² | - |
| 1777014789 | 4.44° C | 60% | 1016.5 hPa | 0 mm | - | 0 W/m² | - |
| 1777014483 | 5° C | 59% | 1016.6 hPa | 0 mm | - | 0 W/m² | - |
| 1777014178 | 5° C | 57% | 1016.6 hPa | 0 mm | - | 0 W/m² | - |
| 1777013875 | 5° C | 58% | 1016.6 hPa | 0 mm | - | 0 W/m² | - |
| 1777013572 | 5° C | 59% | 1016.8 hPa | 0 mm | - | 0 W/m² | - |
| 1777013269 | 5° C | 60% | 1016.6 hPa | 0 mm | - | 0 W/m² | - |
| 1777012966 | 5° C | 61% | 1016.5 hPa | 0 mm | - | 0 W/m² | - |
| 1777012663 | 5° C | 60% | 1016.6 hPa | 0 mm | - | 0 W/m² | - |
* Rain latest hour (hover to see other rain measurements)
** Current wind speed in m/s (hover to see current wind gust speed)